Regional Weather Roundup
Issued by NWS Kansas City/Pleasant Hill, MO

Home | Current Version | Previous Version | Graphics & Text | Print | Product List | Glossary Off
Versions: 1 2 3 4 5 6 7 8 9 10 11 12 13 14 15 16 17 18 19 20 21 22 23 24 25 26 27 28 29 30 31 32 33 34 35 36 37 38 39 40 41 42 43 44 45 46 47 48 49 50

000
ASUS43 KEAX 092310
RWREAX

WEATHER ROUNDUP FOR EASTERN KANSAS AND NORTHWEST MISSOURI
NATIONAL WEATHER SERVICE KANSAS CITY/PLEASANT HILL MO
500 PM CST TUE FEB 09 2016

KSZ040-057-103>105-MOZ028-029-037-043-100000-
...KANSAS CITY METROPOLITAN AREA...

CITY           SKY/WX    TMP DP  RH WIND       PRES   REMARKS
K.C. INTL      PTCLDY    26   4  38 NW15G26   30.22R WCI  14
K.C. DOWNTOWN  CLEAR     29   4  34 NW14      30.23R WCI  18
LEES SUMMIT    CLEAR     27   2  34 NW18      30.21R WCI  14
OLATHE - IXD   CLEAR     27   3  35 NW18G26   30.24R WCI  14
OLATHE - OJC   CLEAR     27   2  34 NW16G23   30.23R WCI  15
LAWRENCE       CLEAR     29   3  33 N21       30.27R WCI  16

$$

MOZ001>008-011>017-020>025-030>033-038>040-044>046-053-054-100000-
...NORTHERN AND CENTRAL MISSOURI...

CITY           SKY/WX    TMP DP  RH WIND       PRES   REMARKS
ST. JOSEPH     CLEAR     27   4  37 N22G32    30.24R WCI  13
MOSBY            N/A     28   3  34 NW16G28   30.22R WCI  17
WARRENSBURG    CLEAR     28   5  37 NW15G23   30.20R WCI  17
WHITEMAN AFB   PTCLDY    27   6  40 NW16      30.17R WCI  15
CLINTON          N/A     32  10  40 NW18G24   30.20R WCI  20
SEDALIA        CLEAR     28  11  48 NW18      30.18R WCI  15
WARSAW         NOT AVBL
CHILLICOTHE      N/A     26   5  40 NW14G24   30.18R WCI  14
KIRKSVILLE     FLURRIES  22   6  50 NW17G24   30.11R WCI   8

$$

MOZ041-047>049-056>058-063>065-088>090-097-100000-
...EASTERN AND SOUTHERN MISSOURI...

CITY           SKY/WX    TMP DP  RH WIND       PRES   REMARKS
ST. LOUIS INTL PTCLDY    25  10  53 NW16G24   30.06R WCI  12
SPIRIT OF STL  MOCLDY    27   8  44 NW17G29   30.07R WCI  14
COLUMBIA       CLOUDY    25   9  50 NW15G28   30.12R WCI  13
JEFFERSON CITY CLOUDY    26  10  50 NW14      30.15R WCI  14
ROLLA          CLOUDY    24  11  57 W20G26    30.08R WCI  10
OSAGE BEACH    MOCLDY    28   9  43 NW9G22    30.14R WCI  20
SPRINGFIELD    CLEAR     32   6  33 NW17G25   30.14R WCI  21
BRANSON        CLEAR     32   3  29 NW20G25   30.13R WCI  20
JOPLIN         CLEAR     34   8  33 NW18G28   30.22R WCI  23
WEST PLAINS    CLEAR     31   7  36 NW17G23   30.08R WCI  19

$$

IAZ060-094-KSZ022-034>040-054-083-096-NEZ052-066-093-100000-
...KANSAS...SOUTHEAST NEBRASKA AND IOWA...

CITY           SKY/WX    TMP DP  RH WIND       PRES   REMARKS
TOPEKA         CLEAR     30   3  31 N18G25    30.28R WCI  18
MANHATTAN      CLOUDY    30   8  39 N10       30.31S WCI  21
EMPORIA        CLEAR     31   8  38 N17G24    30.26R WCI  19
CHANUTE        CLOUDY    35   8  32 N16       30.26R WCI  25
WICHITA        CLOUDY    39  16  39 NW20      30.29R WCI  29
OMAHA          PTCLDY    23  11  60 NW13      30.26R WCI  11
LINCOLN        CLOUDY    28  13  53 NW10      30.28R WCI  19
FALLS CITY     CLEAR     27   7  42 NW12      30.25S WCI  17
LAMONI         CLEAR     20   4  50 NW21G31   30.16R WCI   4
DES MOINES     PTCLDY    18   5  57 NW21      30.17R WCI   1

$$




USA.gov is the U.S. government's official web portal to all federal, state and local government web resources and services.